Voltar ao catálogo

CZ-6A DEB

LostPO
NORAD 64629·DEBRIS·🇨🇳 China

Lançado Aug 6, 2024 de Taiyuan Satellite Launch Center

Loading…

Próximas Passagens (próximas 24 horas)

TLE

ObsoletoSource: Space-Track

Época: Jul 25, 2026, 08:39 UTC

1 64629U 24140ADT 26206.36095079  .00001337  00000-0  46586-3 0  9999
2 64629  88.6787 240.7853 0022223 136.1092 224.1877 14.34696429 98900

Acompanhe CZ-6A DEB em tempo real com AllMySat

Download on the App Store